Find Galaxy 33

NORAD ID: 54026 Int'l Des: 2022-128 Owner: INTELU Country: US operational
HEOCIRCULARGSOGEO

Live-Position

3D-Globus wird geladen...

Über Galaxy 33

Beschreibung wird geladen...

Nächste Überflüge

Passes for default location (London). Set your location on the main map for personalized predictions.

Höhenverlauf

Loading altitude history...

Zweizeiliger Elementsatz

1 54026U 22128A 26104.82254896 .00000084 00000-0 00000+0 0 9990
2 54026 0.0148 263.8931 0001778 119.9087 342.3209 1.00271983 13101
Epoch: 14. Apr. 2026 • Age: 7 hours

Aktueller Status

Höhe 35785.1 km
Geschwindigkeit 3.07 km/s
Subsatellitenpunkt -0.02°S, 132.97°W
Startdatum 8. Okt. 2022
Alter 3.5 years
Typ other

Technische Details

Klassifizierung Payload
Masse 3700.00 kg
Trockenmasse 2500.00 kg
Gesamtmasse 3700.00 kg
Länge 5.00 m
Durchmesser 2.50 m
Spannweite 23.00 m
Form Box + 2 pan
Hersteller NGISD
Bus-Typ Geostar-2.4E
Phasenstatus In Orbit
Besitzer/Staat INTELU/US

Most Searched